Location: Alsip
(41.6689°N, 87.7387°W)
Time: 14:14:37
(UTC+00:00)

SL-16 R/B - Pass Details

Date: 14 July 2020
Orbit: 842 x 846 km, 71.0° (Epoch: 04 August)

Event Time Altitude Azimuth Distance (km) Brightness Sun altitude
Rises 08:52:01 0° 342° (NNW) 3,415 5.8 -14.9°
Reaches altitude 10° 08:54:39 10° 350° (N) 2,476 5.2 -14.6°
Maximum altitude 08:59:56 39° 58° (ENE) 1,259 3.7 -13.9°
Drops below altitude 10° 09:05:11 10° 127° (SE) 2,462 4.7 -13.2°
Sets 09:07:47 0° 135° (SE) 3,393 5.4 -12.9°
